Погода в Шадринске

Хотите узнать прогноз погоды в Шадринске? Тогда Вам сюда: Погода в Шадринске

Поиск расширенной информации на нашем сайте:

Полезная информация:

Новости сайта



14.11.2019
Обновлён Долгосрочный прогноз погоды по России и другим странам хСССР на ноябрь-декабрь 2019 года.
Опубликованы прогностические карты: Предварительный прогноз на декабрь 2019 года, Предварительный прогноз на январь 2020 года, Предварительная схема синоптических процессов на декабрь 2019 г..

11.11.2019
Обновлены Долгосрочный прогноз погоды по России и другим странам хСССР на ноябрь-декабрь 2019 года и Предварительный прогноз на зиму 2019/2020 годов

04.11.2019
Опубликован Долгосрочный прогноз погоды по России и другим странам хСССР на ноябрь 2019 года
Сравнение прогнозируемой аномалии приземной температуры воздуха на ноябрь 2019 года по разным моделям
Предварительный прогноз на зиму 2019/2020 года




Погода в Шадринске - сегодня

Время (UTC), дата Ветер
(°,м/с) 
Видим.   Явления Облачность Т
(°С)
Тd
(°С)
f(%) Тe
(°С)
Pmin
(гПа)
dP
(гПа)
Po
(мм)
O2
(г/м3)
Тmin Tmax R s Состояние
почвы
00 18.11.19 330 (СЗ) 5{10}  10 км    8/8 600 м кучево-дожд. 
[Cb cap]
-1.3 -7.1 65 -5  1024.1  0.6  760  308           
03 18.11.19 290 (З) 10 км    6/6 600 м кучево-дожд. 
[Cb cap]
-6.2 -9.5 77 -9  1025.3  0.9  760  314  -6.7      10  равномерный
мокрый или
старый снег
100% 
06 18.11.19 310 (СЗ) 10 км    9/9 600 м кучево-дожд. 
[Cb cap]
-3.5 -8.1 70 -6  1026  0.8  761  311           
09 18.11.19 320 (СЗ) 10 км    9/6 600 м кучево-дожд., верхняя 
[Cb cap|Ci sp]
-3 -8.7 65 -6  1026.3  0.3  761  311           
12 18.11.19 010 (С) 5{10}  10 км  {ливн. осадки}  9/6 600 м кучево-дожд., верхняя 
[Cb cap|Ci sp]
-6.3 -12.1 63 -10  1027.8  1.4  762  315           
15 18.11.19 010 (С) 3{10}  10 км    8/4 600 м верхняя 
[Sc|Ci sp]
-13.2 -19.5 59 -17  1031.5  3.3  765  325    -2.9  0.0     
18 18.11.19 010 (С) 10 км    8/4 600 м верхняя 
[Sc|Ci sp]
-16.4 -21.3 66 -20  1033.4  1.7  766  330           
21 18.11.19 010 (С) 10 км    6/0 верхняя 
[Ci sp]
-20.1 -24.1 70 -26  1035  1.3  767  335           
00 19.11.19 340 (С) 10 км    6/0 верхняя 
[Ci sp]
-23 -26.8 71 -28  1036.6  1.4  768  340           
03 19.11.19 350 (С) 10 км    3/0 верхняя 
[Ci sp]
-25 -28.8 71 -28  1038.1  1.4  769  343  -25      10  равномерный
мокрый или
старый снег
100% 
06 19.11.19 330 (СЗ) 10 км    ясно 
-24.7 -29.5 64 -30  1039  0.9  770  343  -25.5         
09 19.11.19 330 (СЗ) 10 км    ясно 
-23 -29 58 -28  1038.9  770  341           
12 19.11.19 330 (СЗ) 10 км    ясно 
-23.2 -28.5 62 -28  1039.5  0.5  770  341           
15 19.11.19 340 (С) 10 км    ясно 
-24.4 -29.2 64 -29  1040.9  1.3  771  343    -22.3       
18 19.11.19 340 (С) 10 км    ясно 
-24.9 -29.1 68 -28  1042.2  1.3  772  344           
21 19.11.19 300 (СЗ) 10 км    ясно 
-26.1 -29.4 74 -27  1042.9  0.6  773  346           
00 20.11.19 330 (СЗ) 10 км    9/3 600 м средняя, верхняя 
[Sc|Ac trans|Ci sp]
-23.8 -27.7 70 -29  1043.5  0.7  773  343           
03 20.11.19 320 (СЗ) 10 км    3/0 верхняя 
[Ci sp]
-24.5 -28.1 72 -28  1044.4  0.9  774  344  -26.3      10  равномерный
мокрый или
старый снег
100% 
06 20.11.19 330 (СЗ) 10 км    3/3 600 м верхняя 
[Sc|Ci sp]
-22.9 -27.1 68 -29  1045.2  0.9  774  342           
09 20.11.19 320 (СЗ) 10 км    ясно 
-19.9 -25.2 63 -24  1045.3  0.2  775  338           
12 20.11.19 310 (СЗ) 10 км    ясно 
-19.9 -24.2 69 -23  1045.9  0.6  775  339           
15 20.11.19 270 (З) 10 км    ясно 
-21.7 -24.7 77 -22  1047  776  341    -19.3       
18 20.11.19 270 (З) 10 км    6/3 600 м верхняя 
[Sc|Ci sp]
-21.6 -24.4 78 -25  1046.3  -0.7  775  341           
21 20.11.19 270 (З) 10 км    10/8 600 м верхняя 
[Sc|Ci sp]
-19 -21.8 78 -22  1044.9  -1.3  774  337           
00 21.11.19 240 (ЮЗ) 10 км    6/0 верхняя 
[Ci sp]
-19.3 -22.1 78 -22  1043.6  -1.2  773  337           
Время (UTC), дата Ветер
(°,м/с) 
Видим.   Явления Облачность Т
(°С)
Тd
(°С)
f(%) Тe
(°С)
Pmin
(гПа)
dP
(гПа)
Po
(мм)
O2
(г/м3)
Тmin Tmax R s Состояние
почвы

Для получения пояснительной информации подведите курсор к названию столбца.

ПОГОДА в Шадринске - архив

Всё, что Вы хотите узнать о погоде в Шадринске - удобно и подробно!

Выберите нужную дату (начиная с 1 января 2019* года) и нажмите кнопку "Найти".
Будут отображены архивные сводки погоды по пункту Шадринск, начиная с указанной даты.


Отображать данные в формате CSV (для использования в таблицах Excel)


Внимание! Наш архив погоды предназначен исключительно для личного некоммерческого использования в познавательных целях. Если Вам необходимы официальные справки о состоянии погоды (для производственных, юридических, коммерческих и т.п. целей), обращайтесь в органы Росгидромета.

*Примечание: данная дата относится к архиву по метеостанциям СССР (Россия, СНГ, Балтия).
Архив по метеостанциям Зарубежной Европы и Азии (кроме Китая) хранится 10 дней, по другим регионам земного шара (Китай, Африка, Америка, Австралия, Океания) - 1 день.

Шадринск - район местоположения метеостанции


Название, широта, долгота, высота метеостанции:
Шадринск 56.1°ш. 63.6°д. 89 м над ур. моря [Российская Федерация]

Дополнительная информация

В oтличие oт бoльшинства пoгoдных сайтoв мы публикуем пoдрoбную метеoинфoрмацию в детальнoм прoфессиoнальнoм фoрмате.

Характеристики температуры и влажнoсти вoздуха измеряются на высoте 2 м в тени вдали oт зданий и деревьев.
Скoрoсть ветра измеряется на высoте 10 м (на урoвне рoста челoвека скoрoсть ветра ниже в 1.5-2 раза). Если метеoстанция нахoдится в гoрoде или в лесу, тo скoрoсть ветра занижена на 2-4 м/с пo сравнению с oткрытым местoм. Скoрoсть ветра над акватoриями крупных рек и oзёр, а также на вершинах хoлмoв на 2-5 м/с выше, чем в oбычных услoвиях.
Атмoсфернoе давление в разных тoчках местнoсти мoжет значительнo oтличаться oт давления на метеoстанции, в зависимoсти oт услoвий рельефа (при пoдъёме на 10 м давление пoнижается примернo на 1 мм рт.ст.).